7 * 24
多渠道服务支持
COSMOS 2380是苏联/俄罗斯联邦独立国家联合体(CIS)于2001年12月1日发射的GLONASS(格洛纳斯)全球导航卫星系统组网卫星。作为格洛纳斯系统空间段组成部分,它承担导航信号播发任务,为全球陆海空用户提供位置坐标与运动速度测定服务,助力俄罗斯打破美国卫星导航领域的垄断格局,该卫星轨道编号为790。
俄罗斯(独联体)
(CIS)
| 数据来源 | 国际轨道数据 |
| 星历时间: | 2026-09-11T12:33:16+0800 9小时前 查看轨道信息 |
| 半长轴: | 25507.977km |
| 偏心率: | 0.0006149 |
| 轨道倾角: | 64.144° |
| 近地点辐角 | 54.249° |
| 升交点赤经 | 54.380° |
| 平近点角 | 126.360° |
| 近地点: | 19114.155km |
| 远地点: | 19145.525km |
| 周期: | 675.731分钟 |
| 每日圈数: | 2.131026 |